Main page
METAR-TAF:

METAR-TAF

Airports :

Galesburg Municipal Airport

Galesburg, Illinois, United States

latitude: 40-56-17N, longitude: 090-25-52W, elevation: 764 ft

Current weather observation

The report was made 29 minutes ago, at 05:15 UTC
Wind 10 mph from the South
Temperature 55°F
Humidity 47%
Pressure 29.86 in. Hg
Visibility: 10 miles
Scattered clouds at a height of 8000 ft

METAR: KGBG 230515Z AUTO 19009KT 10SM SCT080 13/02 A2986 RMK AO2 T01320020

Time: 00:44 (05:44 UTC)


TAF: missing

Weather observations and forecasts of more than 4000 airports (METAR and TAF reports).

The available stations are represented by yellow and red dots on the map.

Hover mouse over dot to see the name of the station.

Then click to see weather observations and forecasts.

To change the map : click on the green buttons with a black cross to zoom in, on the green button with a dash to zoom out, or on the green arrows for adjacent maps.


METAR-TAF: